sat.trackr.live / text

‹ back to catalog

ONEWEB-0362

NORAD 49288 · 2021-090K

PAYLOAD ACTIVE UNKNOWN

§ Identity

Operator
Country
UK
Launch date
2021-10-14
Launch site
VOSTO
Launch vehicle
Mass (kg)
RCS (m²)

Purposes: comms

External: N2YO · Heavens-Above · Gunter

§ Orbital elements

Epoch: 2026-09-12T01:31:07.468896Z

Period
109.11 min
Inclination
87.9113°
Eccentricity
0.0001684
Mean motion
13.19725451 rev/d
Perigee alt
1,184.5 km
Apogee alt
1,187.0 km
Semi-major
7,563.9 km
B*
-1.9923e-5
RAAN
287.6704°
Arg perigee
88.0875°
Mean anomaly
272.0450°
Rev number
23,837

§ Raw data

ONEWEB-03621 49288U 21090K   26255.06328089  .00000005  00000+0 -19923-4 0  99922 49288  87.9113 287.6704 0001684  88.0875 272.0450 13.19725451238372

JSON: /api/v1/satellites/49288 · /tle

For live sub-satellite position, see the globe view (requires WebGL).

§ Visibility from observer

Set your observer location to see the next 7 days of passes ≥ 10°. The values pass through the URL so the page stays shareable.

No JS? Fill the form by hand. The geolocation button needs JavaScript.